Location: Unspecified
(0.0000°N, 0.0000°E)
Time: 08:33:55
(UTC-01:00)

Envisat - Visible Passes

Search period start: 22 June 2018 00:00
Search period end: 02 July 2018 00:00
Orbit: 764 x 766 km, 98.2° (Epoch: 21 June)

Date Brightness Start Highest point End Pass type
(mag) Time Alt. Az. Time Alt. Az. Time Alt. Az.
22 Jun 4.1 17:58:07 18° ESE 18:00:19 24° ENE 18:04:18 10° NNE visible
22 Jun 5.1 19:38:19 19° WSW 19:39:03 20° WSW 19:42:42 10° NW visible
23 Jun 3.5 19:01:07 43° SSW 19:02:27 57° WSW 19:07:24 10° NNW visible
24 Jun 3.2 18:23:55 33° SE 18:25:49 49° ENE 18:30:42 10° N visible
25 Jun 4.5 17:46:42 13° ESE 17:49:12 17° ENE 17:52:29 10° NE visible
25 Jun 4.7 19:26:54 25° WSW 19:27:56 27° WSW 19:32:10 10° NW visible
26 Jun 3.0 18:49:42 44° S 18:51:19 78° WSW 18:56:23 10° NNW visible
27 Jun 3.6 18:12:30 25° ESE 18:14:41 36° ENE 18:19:18 10° NNE visible
27 Jun 5.6 19:52:42 12° WSW 19:53:24 13° WSW 19:55:37 10° WNW visible
28 Jun 4.8 17:35:56 10° ESE 17:38:04 13° ENE 17:40:12 10° NE visible
28 Jun 4.2 19:15:30 31° SW 19:16:49 36° WSW 19:21:26 10° NW visible
29 Jun 2.8 18:38:18 39° SSE 18:40:11 77° ENE 18:45:14 10° N visible
30 Jun 4.0 18:01:06 18° ESE 18:03:33 27° ENE 18:07:45 10° NNE visible
30 Jun 5.3 19:41:18 17° WSW 19:42:18 18° WSW 19:45:37 10° WNW visible
01 Jul 3.7 19:04:06 37° SSW 19:05:40 50° WSW 19:10:34 10° NNW visible
